Location: Marlborough
(51.4223°N, 1.7415°W)
Time: 06:36:05
(UTC+01:00)

Envisat - Pass Details

Date: 29 May 2024
Orbit: 762 x 764 km, 98.3° (Epoch: 13 June)

Event Time Altitude Azimuth Distance (km) Brightness Sun altitude
Rises 03:44:11 0° 21° (NNE) 3,240 8.0 -8.9°
Reaches altitude 10° 03:46:44 10° 31° (NNE) 2,309 7.2 -8.7°
Maximum altitude 03:51:17 32° 95° (E) 1,285 4.6 -8.3°
Drops below altitude 10° 03:55:48 10° 158° (SSE) 2,293 5.2 -7.8°
Sets 03:58:19 0° 168° (SSE) 3,214 5.9 -7.6°
